Location: Meanaryar
(48.4161°N, 4.7315°W)
Time: 08:02:22
(UTC+00:00)

Cosmos 1092 Rocket - Pass Details

Date: 24 January 2021
Orbit: 954 x 995 km, 83.0° (Epoch: 02 March)

Event Time Altitude Azimuth Distance (km) Brightness Sun altitude
Rises 20:18:52 0° 227° (SW) 3,648 7.5 -31.8°
Reaches altitude 10° 20:21:52 10° 240° (WSW) 2,700 6.9 -32.3°
Maximum altitude 20:26:50 25° 294° (WNW) 1,841 6.0 -33.2°
Drops below altitude 10° 20:31:49 10° 348° (NNW) 2,698 6.5 -34.0°
Sets 20:34:49 0° 2° (N) 3,646 7.1 -34.5°
